Temp
11 11 10 10 10 10 10 10 10 9 9 9 9 9 10 10 10 10 10 10 10 10 10 10 11 11 11 11 11 11 11 11 12 12 12 12 12 12 12 12 13 13 14 15 15 15 15 15 15 15 15 15
10 10 10 10 10 10 9 9 9 9 9 9 9 9 9 10 10 10 10 10 10 10 10 10 10 10 10 10 11 11 11 11 11 11 11 11 11 11 12 12 12 13 13 14 15 15 15 15 15 15 15 15
10 10 10 10 9 9 9 9 9 9 9 8 9 9 9 9 9 9 10 9 9 10 10 9 9 10 10 10 10 10 10 10 10 10 10 10 11 11 12 12 12 13 13 13 14 14 15 15 14 14 14 14
10 10 9 9 9 9 8 8 8 8 8 8 8 8 8 9 9 9 9 9 9 9 9 9 9 9 9 9 9 10 10 9 9 9 10 10 10 11 12 12 12 12 13 13 13 14 14 14 14 14 14 13
10 9 9 9 8 8 8 8 8 7 8 8 7 8 8 8 8 9 9 8 9 9 9 9 9 9 9 9 9 9 9 8 9 9 9 9 10 11 11 11 12 12 12 12 13 13 13 13 13 13 13 12
9 9 8 8 8 7 7 7 7 7 7 7 7 7 7 8 8 8 8 8 8 9 9 9 8 9 9 9 9 9 8 8 8 8 8 9 10 10 10 11 11 11 11 11 12 12 12 12 12 11 11 11
9 8 8 7 7 7 6 6 6 6 6 6 6 6 7 7 8 8 8 8 8 8 9 9 9 9 9 9 9 8 8 8 8 8 8 9 9 10 10 11 11 10 10 11 11 11 11 11 11 10 10 10
8 7 7 7 6 6 6 6 5 5 5 6 6 6 6 7 7 8 8 8 8 8 8 8 8 8 9 9 8 8 8 7 7 8 8 8 9 9 10 10 10 9 10 10 10 10 10 10 10 9 9 9
7 6 6 6 6 6 5 5 5 5 5 5 6 6 6 7 7 7 8 8 8 8 8 8 8 7 8 8 8 8 7 7 7 7 8 8 8 8 8 8 9 9 9 9 9 9 9 9 9 9 9 8
6 6 6 5 5 5 5 5 5 5 5 5 5 6 6 6 7 7 7 7 7 7 7 7 6 6 7 7 7 7 7 6 6 7 7 7 7 7 7 8 8 8 8 8 8 8 8 8 8 8 8 8
5 5 5 5 5 5 4 4 4 4 5 5 5 5 6 6 6 7 7 7 6 6 6 5 5 6 6 6 6 6 6 6 6 6 6 6 6 7 7 7 7 7 7 7 7 7 7 7 7 7 7 7
5 5 4 4 4 4 4 4 4 4 4 5 5 5 5 5 6 6 6 6 6 6 5 4 5 5 5 5 6 5 6 6 5 5 6 6 6 6 6 6 6 6 6 6 7 7 7 7 6 6 6 6
4 4 4 4 4 4 4 4 4 4 4 4 4 5 5 5 5 5 6 5 5 5 5 4 4 5 5 5 5 5 5 5 5 5 5 5 5 6 6 6 6 6 6 6 6 6 6 6 6 6 6 6
4 4 4 3 4 4 4 4 4 4 4 4 4 4 4 4 5 5 5 4 4 4 4 4 4 4 4 4 4 5 5 5 5 4 5 5 5 5 5 5 5 5 5 5 5 5 6 5 5 5 5 5
4 4 3 3 4 4 4 4 4 4 4 4 4 4 4 4 4 4 4 4 4 4 3 3 3 3 3 3 4 4 4 5 4 4 4 4 5 5 5 5 4 4 4 5 5 5 5 5 5 5 5 5
3 3 3 4 4 4 4 4 4 4 4 3 3 3 3 4 4 4 4 4 3 3 3 3 3 3 3 2 3 4 4 4 4 4 4 4 4 4 4 4 4 4 4 4 4 4 4 4 4 4 4 4
3 3 3 3 3 3 4 4 4 4 3 3 3 3 3 3 3 3 4 3 3 3 3 2 2 2 2 2 2 3 3 4 4 4 4 4 4 4 4 4 3 3 3 3 3 3 3 4 4 3 4 4
3 3 3 3 3 3 4 4 4 3 3 3 3 2 3 3 3 3 3 3 3 3 3 2 1 1 1 1 1 2 3 3 4 4 4 3 3 3 4 3 3 3 3 3 3 3 3 3 3 3 3 3
3 3 3 3 3 3 3 3 3 3 3 3 3 2 2 2 2 2 2 3 2 2 2 2 1 -0 -0 -0 0 1 2 2 3 3 3 3 2 3 3 3 3 3 2 2 2 2 2 2 2 2 2 3
3 3 2 3 3 3 3 3 3 3 3 3 3 3 2 2 2 2 2 2 2 2 2 1 1 -0 -1 -1 -0 0 1 1 2 2 2 2 2 2 2 2 2 2 2 2 2 2 2 2 2 2 2 2
3 3 3 3 2 3 3 3 3 2 2 3 3 2 2 2 2 2 2 2 2 2 1 1 1 0 0 -0 -1 -1 -0 0 1 1 1 1 1 1 1 2 2 2 2 1 2 2 2 2 2 2 2 2
3 3 3 3 2 3 4 3 3 2 2 2 2 2 2 2 2 2 1 1 1 1 1 1 1 1 1 1 0 -0 -0 -0 -0 0 1 1 1 0 -0 0 1 1 2 1 1 2 2 1 1 1 1 1
3 3 3 3 2 3 4 3 3 3 2 2 2 2 1 1 1 1 1 1 1 1 1 1 1 1 1 1 0 1 0 -1 -1 -0 -0 0 0 -0 -1 -1 -0 1 1 1 1 1 1 1 1 1 1 1
3 3 3 3 3 3 3 3 3 3 3 2 2 1 1 1 1 1 1 0 0 0 0 0 0 0 0 0 0 0 -1 -3 -3 -2 -1 -1 -1 -1 -1 -1 -1 0 0 1 1 1 0 0 0 0 0 0
3 3 3 3 3 3 3 3 3 3 3 2 2 1 1 1 0 0 0 0 0 -0 -0 -0 -0 -0 -0 -0 -0 -1 -2 -3 -3 -2 -1 -1 -1 -2 -2 -2 -1 -0 0 0 0 0 0 -0 -1 -0 0 -0
4 3 3 3 3 3 3 3 3 2 2 2 2 1 1 1 0 0 0 -0 -0 -0 -0 -1 -1 -1 -1 -1 -1 -1 -2 -2 -2 -2 -2 -2 -2 -2 -2 -2 -2 -1 -1 -1 -2 -1 -0 -0 -1 -1 -1 -1
4 3 2 2 3 3 3 2 2 1 2 2 2 1 1 1 0 -0 -0 -0 -1 -1 -1 -1 -1 -1 -1 -1 -1 -1 -2 -2 -2 -2 -3 -3 -3 -2 -2 -3 -3 -2 -2 -3 -2 -1 0 0 0 -0 -0 -1
5 4 3 2 2 2 2 2 1 1 2 2 2 1 1 0 -0 -1 -1 -1 -1 -1 -1 -2 -2 -2 -2 -2 -2 -2 -3 -3 -4 -4 -4 -4 -3 -3 -4 -4 -3 -3 -3 -3 -2 -1 -0 0 1 0 -0 -1
5 4 3 3 3 3 2 2 2 3 3 2 2 1 0 -0 -0 -1 -1 -1 -1 -2 -2 -2 -2 -2 -2 -3 -3 -3 -4 -4 -5 -5 -4 -4 -4 -4 -5 -5 -4 -3 -3 -3 -3 -3 -2 -1 0 -0 -1 -1
5 4 3 3 3 3 3 3 4 4 3 2 1 1 -0 -1 -1 -1 -1 -1 -2 -2 -2 -2 -2 -3 -3 -3 -3 -4 -4 -5 -5 -5 -5 -5 -5 -5 -5 -5 -5 -4 -3 -3 -3 -3 -3 -2 -2 -2 -2 -1
5 4 3 3 3 4 4 4 3 2 2 1 0 -0 -1 -1 -1 -1 -2 -2 -2 -2 -3 -3 -3 -3 -3 -3 -4 -4 -4 -5 -5 -6 -6 -6 -6 -5 -5 -5 -6 -5 -4 -4 -3 -3 -4 -3 -3 -3 -3 -3
Height
864 863 862 861 860 859 858 857 855 854 853 852 850 849 847 846 844 843 841 840 839 837 836 834 833 831 830 829 826 825 823 822 820 818 817 815 813 810 808 807 805 803 802 801 800 799 798 799 799 799 800 799
864 863 862 861 860 859 858 857 855 854 853 852 850 849 847 845 844 842 841 840 838 837 835 834 832 831 830 828 826 825 824 822 820 819 817 815 812 810 808 806 805 803 801 800 799 798 797 797 797 797 798 798
864 863 862 861 860 859 858 856 855 854 853 851 850 848 847 845 844 842 841 839 838 836 835 834 832 831 829 828 827 825 824 823 821 819 817 814 812 810 808 806 804 802 801 799 798 797 797 796 795 795 795 795
864 863 862 861 860 859 858 856 855 854 853 851 850 848 847 845 844 842 840 839 838 836 834 833 832 830 829 828 826 824 824 823 820 818 816 814 811 809 807 805 803 801 800 799 798 797 796 795 795 794 794 793
864 863 862 861 860 859 857 856 855 854 852 851 849 848 846 845 843 842 840 839 837 836 834 832 831 830 828 827 826 825 824 822 820 818 816 813 811 809 807 805 803 801 799 798 797 796 796 795 794 794 793 792
864 863 862 861 860 858 857 856 855 853 852 851 849 848 846 844 843 841 840 838 837 836 834 832 831 829 828 827 825 824 824 822 820 818 816 813 811 809 807 805 803 802 800 798 797 796 795 794 794 794 793 793
864 863 862 860 859 858 857 856 855 853 852 851 849 848 846 844 843 841 839 838 837 836 834 833 831 829 828 827 825 824 823 821 820 818 816 814 812 809 807 805 804 803 801 799 798 797 796 795 795 795 794 794
864 863 862 860 859 858 857 856 855 853 852 851 849 848 846 844 842 841 839 838 837 836 834 833 831 830 828 827 825 824 823 821 819 818 816 814 812 810 808 806 805 803 802 801 799 798 797 796 796 796 795 795
864 863 862 861 859 858 857 856 855 853 852 851 849 848 846 845 843 841 839 838 837 835 834 832 831 830 828 827 825 824 823 821 820 818 816 814 812 810 809 807 806 804 803 802 801 800 798 798 797 797 796 795
865 863 862 861 860 859 857 856 855 854 852 850 849 848 847 845 843 842 840 839 837 836 834 833 832 830 828 827 826 825 823 822 820 818 817 815 813 812 810 809 807 806 804 803 802 801 800 799 798 798 797 796
865 864 863 862 861 859 858 856 855 854 852 851 850 848 847 845 843 842 840 839 838 836 835 833 832 831 829 828 826 825 824 822 821 819 818 816 814 813 812 810 809 807 806 805 804 803 801 800 800 799 799 798
866 865 864 863 861 860 858 857 855 854 853 852 850 849 847 846 844 842 841 840 838 837 835 834 833 832 830 828 827 825 824 823 822 820 819 817 816 814 813 811 810 809 807 806 805 804 803 802 801 800 800 799
867 866 865 863 862 860 859 857 856 855 854 852 851 849 847 846 844 843 841 840 839 837 836 835 834 832 831 829 828 826 825 823 822 821 820 818 817 815 814 812 811 810 809 808 807 806 804 803 802 801 801 800
868 867 865 864 862 861 860 858 857 856 854 853 851 849 848 846 845 843 842 840 839 838 836 835 834 833 831 830 828 827 825 824 823 822 820 819 818 816 815 813 813 811 810 809 808 807 806 805 804 802 802 801
868 867 866 864 863 862 860 859 858 856 855 853 851 850 848 847 845 844 842 841 840 838 837 835 834 833 832 830 829 828 826 825 824 823 821 820 819 818 816 815 814 813 811 810 810 809 808 806 805 804 803 802
869 868 867 865 864 862 861 860 858 857 855 853 852 851 849 848 846 845 843 842 840 839 837 836 834 833 832 831 829 828 827 826 825 824 822 821 820 819 818 816 815 814 813 812 811 810 809 809 807 806 805 803
869 868 867 866 864 863 862 860 859 857 855 854 853 851 850 848 847 845 844 842 841 840 838 837 835 834 832 831 830 829 828 827 825 824 823 822 821 819 818 817 816 815 814 813 812 811 811 810 808 807 806 805
870 869 868 867 865 864 863 861 859 858 857 855 854 852 851 849 848 846 845 843 842 841 839 837 836 834 833 832 831 830 828 827 825 824 823 822 821 820 819 818 817 816 815 814 813 812 812 811 810 809 807 806
871 870 869 868 866 865 864 862 860 859 858 856 854 853 852 850 849 847 846 844 843 841 840 838 836 835 834 832 831 830 829 827 826 825 824 823 822 820 820 819 818 817 816 815 815 814 813 812 811 810 809 808
872 871 870 868 867 866 865 863 861 860 859 857 856 854 852 851 850 848 847 845 843 842 840 839 837 836 835 833 832 830 829 828 826 826 824 823 822 821 820 819 819 818 817 816 816 815 814 813 812 811 810 809
872 871 870 869 868 866 865 864 862 861 860 858 856 855 853 852 850 849 848 846 845 843 841 840 838 837 836 834 832 831 830 829 827 826 825 824 823 822 821 820 819 818 818 817 817 816 815 815 814 813 812 811
872 872 871 869 868 867 865 864 863 862 860 859 857 855 854 853 851 850 849 847 846 844 843 841 839 838 837 835 833 832 830 829 828 827 826 825 824 823 823 821 820 819 818 818 818 817 816 816 815 814 814 813
873 872 871 870 868 867 865 864 863 862 860 859 858 856 855 854 853 851 850 848 847 845 844 842 840 839 837 836 834 833 831 830 829 828 827 826 825 824 823 822 821 819 819 818 818 818 817 817 816 815 815 814
874 873 872 870 868 867 865 864 863 862 861 860 859 857 857 855 854 852 851 850 848 846 845 843 841 840 838 837 835 833 832 831 830 829 828 827 826 825 824 822 821 820 819 819 818 818 818 817 817 816 816 815
874 873 872 870 868 866 865 864 863 862 861 860 859 858 857 856 855 854 852 851 849 847 846 844 842 841 839 837 836 834 833 832 831 830 829 828 827 826 824 823 821 820 819 819 819 819 818 818 818 817 817 816
873 873 872 870 868 867 866 865 864 863 862 861 860 859 858 856 855 854 853 851 850 848 846 845 843 841 840 838 837 836 835 834 832 831 829 828 827 826 825 825 823 821 820 819 819 819 819 818 818 817 817 817
873 872 871 870 869 868 867 865 864 864 863 862 861 860 858 857 856 855 853 852 850 849 847 845 844 842 841 840 838 837 836 835 833 832 831 829 828 827 826 826 825 823 821 820 819 819 818 818 818 817 817 817
873 872 871 870 869 868 867 866 865 864 864 863 862 860 859 857 856 855 854 853 851 850 848 847 845 844 842 841 840 838 837 836 834 833 832 831 829 828 827 826 825 824 823 821 819 819 819 818 817 818 818 818
873 872 871 870 869 868 867 866 865 865 864 863 862 861 860 858 857 856 855 854 852 851 849 848 846 845 843 842 841 840 838 837 836 835 833 832 831 829 828 827 826 825 824 822 821 821 820 819 819 820 820 819
873 872 872 871 870 869 868 867 865 864 864 863 862 862 861 859 858 857 856 854 853 852 850 849 847 846 844 843 842 841 840 838 837 836 834 833 832 831 829 828 827 826 824 824 823 822 822 822 822 822 821 820
873 873 872 871 870 869 868 867 866 865 864 863 863 862 861 860 858 857 856 855 854 852 851 850 848 847 845 844 843 841 840 839 838 837 836 835 833 832 831 829 828 827 825 824 824 823 823 823 823 823 822 822
Wind_Speed
9 9 11 12 13 14 15 16 16 15 15 16 16 16 16 14 14 13 12 13 14 14 16 17 18 19 16 17 19 17 18 20 19 19 18 18 18 19 19 19 20 21 21 20 19 20 21 21 21 20 20 19
8 9 10 11 13 14 14 14 14 14 15 15 15 15 16 15 14 13 13 14 15 14 15 15 17 17 16 17 18 16 17 19 19 18 17 18 18 18 18 17 18 20 21 20 19 18 19 18 18 19 18 16
9 10 11 12 12 13 13 13 14 14 14 15 15 15 15 15 14 13 13 14 15 15 14 14 15 15 16 17 18 17 17 19 19 18 18 18 18 17 17 16 15 16 18 18 17 16 16 14 14 16 16 15
10 11 12 11 11 12 13 13 13 14 14 14 15 15 15 15 14 12 13 13 14 14 13 13 13 13 15 17 18 17 16 19 19 18 19 19 18 17 16 14 13 12 13 15 15 13 11 11 11 11 11 10
11 12 12 12 12 12 12 13 13 14 15 15 16 16 15 15 15 14 13 13 13 14 13 14 14 13 14 16 17 17 16 19 20 19 19 18 17 17 16 14 12 11 10 9 9 8 7 7 5 3 3 4
12 12 12 12 13 13 13 13 14 15 16 17 17 17 15 14 16 15 13 13 13 14 14 14 15 13 14 15 16 17 17 20 22 20 18 18 17 16 16 16 16 14 12 9 7 4 3 3 2 4 4 5
12 12 12 12 13 13 14 14 15 15 15 16 17 17 16 15 16 16 14 13 12 14 13 12 14 14 13 14 15 17 18 20 22 21 19 18 17 17 16 16 16 16 14 12 10 8 7 7 8 8 8 8
11 11 12 12 13 13 14 15 15 16 16 15 17 17 16 16 16 15 14 13 12 12 13 12 15 14 12 14 16 17 17 20 22 22 21 20 18 18 17 16 16 16 15 14 12 11 12 11 10 10 11 11
11 11 12 13 14 14 14 15 15 16 16 15 16 16 16 17 16 14 14 14 12 12 13 14 15 14 14 16 16 15 16 19 21 22 22 22 21 20 19 18 17 16 16 15 14 13 13 13 12 12 13 13
11 12 14 15 15 14 15 15 15 16 16 16 16 15 16 17 16 15 15 15 15 15 15 16 17 16 15 15 14 15 16 18 20 21 22 22 22 20 19 18 18 17 16 16 15 14 14 14 13 13 13 13
11 13 14 14 14 15 16 15 15 16 17 17 16 16 16 18 18 17 16 16 16 16 16 17 18 17 16 15 14 15 16 17 18 19 20 21 21 20 19 19 19 18 17 16 16 16 16 16 15 15 14 14
12 13 13 13 14 15 15 15 16 16 16 16 16 16 16 17 18 17 16 15 15 16 16 17 18 16 15 16 15 15 14 15 16 17 18 20 20 19 19 20 19 18 19 18 17 17 17 17 17 17 16 16
13 14 13 14 15 15 14 15 16 15 15 15 15 16 16 16 17 17 16 15 14 14 15 16 16 15 15 16 16 15 14 14 16 15 16 19 20 19 18 19 19 18 19 19 19 18 18 18 18 17 17 17
13 14 14 15 15 15 15 15 15 14 15 16 15 16 17 16 16 16 15 14 14 13 14 14 14 15 15 16 16 15 14 14 15 15 14 16 18 18 18 19 18 17 18 19 19 18 18 18 18 18 17 17
14 14 14 15 16 16 16 15 14 14 15 16 16 16 16 16 16 15 14 13 13 13 13 13 14 14 15 16 16 16 14 13 14 15 14 14 15 16 17 17 17 17 18 18 18 18 18 18 18 17 17 17
15 15 14 15 17 18 17 16 15 15 16 17 16 16 16 16 16 15 13 13 13 13 13 13 13 12 14 16 16 15 14 12 13 15 14 14 14 14 15 15 16 17 18 18 17 17 17 16 17 17 17 17
14 13 13 15 16 18 17 16 16 16 17 17 16 16 16 16 16 15 14 13 13 13 13 14 12 11 12 14 15 14 13 12 12 13 13 14 14 14 15 15 15 16 18 18 16 16 16 15 16 16 16 17
12 10 11 13 14 16 17 16 16 17 17 16 16 16 15 15 16 16 15 14 14 13 14 14 13 12 11 11 13 13 12 12 11 11 12 13 15 15 16 17 16 15 16 18 17 15 15 15 15 15 16 17
10 7 8 10 13 15 16 16 16 16 17 16 15 15 15 16 16 16 16 15 15 14 14 14 14 14 12 11 10 11 12 11 11 11 12 13 14 15 16 17 17 16 15 15 16 14 15 15 15 16 17 18
7 4 5 8 11 14 15 15 16 16 16 15 15 15 16 16 16 16 16 15 15 15 14 14 14 14 14 13 11 9 10 11 10 11 12 13 14 16 16 16 16 15 14 13 13 14 16 17 17 18 18 19
4 3 4 7 10 12 13 13 15 16 16 16 16 16 16 16 16 16 16 16 16 16 15 14 14 13 13 13 12 10 9 11 11 10 11 12 14 15 15 16 15 14 12 11 10 13 17 18 18 19 19 20
2 2 3 6 9 10 11 12 14 16 16 17 17 17 17 16 15 15 15 16 15 15 15 15 14 14 13 13 13 11 9 10 10 9 10 10 12 13 14 16 16 13 10 9 9 12 15 17 18 19 19 19
3 1 2 5 6 7 10 12 14 17 18 18 17 16 16 15 15 15 15 15 15 15 15 15 15 15 15 14 14 13 12 12 11 10 9 9 10 11 13 17 17 12 9 8 9 11 13 16 18 18 17 18
3 3 2 2 4 6 10 12 14 17 18 17 17 16 15 15 16 15 15 15 15 15 15 15 16 15 15 15 15 16 16 16 15 13 11 10 10 10 13 16 17 13 8 9 10 10 11 13 15 17 16 17
4 3 1 1 3 6 9 11 14 16 17 16 15 15 15 15 16 15 15 15 15 16 16 16 16 15 15 15 16 17 18 17 16 15 13 11 10 10 14 17 18 15 8 7 7 6 7 9 11 14 16 16
5 4 3 3 4 6 8 10 13 15 15 14 13 14 14 15 15 15 15 16 16 17 17 17 17 17 17 16 16 16 16 16 15 15 15 13 10 10 12 14 18 18 12 8 4 1 2 4 4 6 11 15
4 4 3 1 3 5 6 8 11 11 12 12 12 13 14 14 15 15 16 16 16 17 18 18 18 18 17 16 16 15 15 15 16 16 16 16 13 11 11 11 14 18 16 13 5 0 0 1 0 1 5 12
3 2 2 1 2 3 4 6 7 7 8 10 12 13 13 14 14 15 15 15 16 17 17 17 17 18 17 17 16 15 16 16 17 17 16 16 15 13 12 11 12 14 16 17 10 2 1 1 2 1 3 9
4 3 4 4 3 2 3 3 3 4 8 11 13 13 13 13 13 13 14 15 15 15 16 16 16 17 16 16 15 15 15 16 16 16 15 16 15 13 11 10 11 10 12 16 15 8 3 1 1 1 4 7
4 3 4 5 5 3 2 2 3 6 9 10 11 12 12 12 12 12 13 13 14 14 15 15 15 16 15 15 14 14 14 14 15 15 14 15 14 13 11 9 12 11 9 11 13 12 8 4 2 1 5 4
3 2 3 5 5 3 1 2 4 6 7 8 9 10 10 11 11 11 12 12 13 13 14 14 15 15 15 14 14 13 13 14 15 15 14 14 13 12 11 10 12 13 11 9 10 10 8 7 7 5 4 2
Wind_Direction
354 354 354 351 348 349 349 349 351 357 357 356 358 358 357 353 354 352 347 351 352 353 348 343 343 346 346 347 350 345 346 349 340 334 333 332 333 332 325 319 317 306 302 304 296 287 277 272 272 270 276 273
349 351 349 345 344 346 348 350 354 356 357 358 360 360 0 360 357 353 351 353 354 352 347 346 346 349 352 350 347 343 349 352 346 343 342 345 344 339 332 324 319 311 306 306 302 296 288 287 286 282 286 284
346 350 348 346 345 347 351 354 356 356 358 0 0 360 2 4 359 355 356 356 357 356 353 352 353 358 0 355 350 343 345 353 353 353 355 357 353 346 341 331 322 314 310 309 309 306 296 288 284 282 281 280
348 353 353 352 353 355 357 358 360 359 359 359 358 357 360 5 3 359 360 360 358 357 2 3 1 9 11 4 359 349 346 354 358 359 1 1 358 354 348 343 337 326 317 312 312 312 303 288 279 277 271 268
355 359 356 358 360 360 0 1 0 358 359 358 356 356 356 1 3 2 360 1 356 355 9 13 7 9 10 9 6 0 358 0 4 6 5 3 2 1 1 5 3 354 344 330 319 316 311 301 287 268 243 233
357 0 359 3 3 2 3 2 359 357 0 1 360 359 358 360 1 1 1 2 356 355 7 11 10 10 4 6 9 11 11 7 8 13 12 9 6 6 10 12 12 13 14 10 7 5 345 339 46 94 111 119
356 358 2 7 6 7 7 6 3 360 1 4 5 5 4 3 360 0 6 8 359 353 355 357 5 12 4 6 11 13 15 12 10 14 17 15 12 14 15 11 15 21 24 28 32 41 51 63 77 83 86 87
357 360 3 6 9 10 10 9 7 5 7 7 8 9 8 6 4 7 11 9 2 353 353 358 1 5 8 12 15 9 11 15 10 12 18 17 18 22 21 20 25 28 30 35 39 47 58 66 73 74 73 72
2 5 7 9 14 14 15 14 11 13 14 12 11 12 10 9 9 14 17 12 13 9 7 14 8 7 16 17 17 11 14 20 13 13 20 21 24 27 27 29 31 33 36 40 42 50 60 65 69 71 72 72
13 15 15 17 20 20 21 19 17 19 17 15 15 12 8 9 12 15 18 17 21 21 15 19 16 14 21 21 23 23 23 24 17 15 21 25 29 31 32 35 37 38 41 44 45 49 55 62 66 67 69 71
24 23 21 22 23 23 22 18 17 19 15 14 14 10 6 7 12 14 17 17 19 21 18 18 17 16 20 21 26 29 24 23 20 18 21 26 30 34 37 40 42 45 46 48 51 53 55 57 61 63 65 67
29 25 22 22 25 25 21 17 17 15 11 10 11 10 6 5 9 12 14 15 15 17 18 16 14 16 20 18 22 27 25 24 21 20 23 25 29 34 39 43 44 48 52 52 54 57 58 59 60 62 62 63
29 24 24 26 27 26 20 18 16 11 8 9 10 8 7 7 8 10 14 17 15 15 16 15 14 18 22 19 21 26 26 25 23 23 26 25 28 32 38 44 45 48 54 55 56 58 59 61 61 62 63 62
31 28 30 31 27 22 19 18 13 10 11 10 10 8 8 8 9 12 14 18 17 16 17 17 19 21 22 23 24 26 26 30 29 28 29 27 29 31 35 42 44 47 54 55 56 58 59 62 63 62 62 61
41 37 37 34 27 22 18 16 13 12 13 11 11 10 8 9 11 13 14 16 16 16 17 19 23 21 20 23 26 27 25 31 37 35 33 30 30 33 36 40 42 44 51 54 55 56 58 61 64 64 63 63
47 38 35 31 27 23 18 16 15 15 15 13 12 10 9 12 13 14 13 14 15 15 15 17 22 23 22 21 24 28 25 29 40 40 38 34 31 34 36 39 42 42 46 50 52 54 57 59 63 64 64 64
48 35 28 27 24 20 17 17 17 17 18 16 16 14 14 16 16 16 14 13 14 13 12 14 18 24 25 21 20 24 25 24 29 32 35 36 32 31 32 35 39 41 42 44 47 53 56 58 61 63 64 63
50 35 23 22 18 15 15 17 19 21 21 20 23 21 20 21 20 19 16 14 13 10 12 14 16 21 23 23 19 18 23 25 26 26 29 32 30 27 29 33 36 36 36 37 41 51 57 59 62 63 64 62
50 35 20 19 13 12 15 18 22 24 23 24 26 25 25 26 24 22 19 18 17 14 15 16 18 20 17 19 24 21 21 26 31 35 35 33 27 23 23 29 35 33 32 34 38 51 61 61 64 65 64 63
49 33 17 16 10 9 14 22 26 25 24 24 26 26 27 27 26 25 22 21 21 20 20 20 22 21 16 17 29 35 27 27 29 34 41 39 29 21 16 19 28 32 34 37 41 59 68 65 68 67 66 66
62 48 27 13 8 6 10 23 30 27 24 25 26 27 28 28 27 27 25 24 23 23 23 23 22 20 20 22 32 41 38 36 32 30 37 39 35 25 14 12 19 27 36 48 55 69 71 65 66 65 64 68
89 77 36 8 5 360 7 25 31 27 24 25 25 26 28 27 26 28 27 26 25 25 25 24 23 21 24 27 30 34 42 46 42 39 35 35 36 28 20 19 18 22 39 66 75 73 69 61 60 61 64 67
131 128 8 2 359 357 14 27 26 24 22 22 23 25 27 26 27 28 26 27 25 26 27 26 27 26 26 28 28 29 37 43 43 44 39 36 36 32 29 25 24 32 55 86 86 76 70 62 58 59 64 64
194 229 277 345 351 3 23 24 18 20 20 18 20 23 25 25 28 28 26 27 26 27 30 30 31 30 29 31 31 33 38 40 39 39 41 41 35 34 34 28 28 40 70 99 94 84 76 67 61 59 59 58
186 210 245 14 7 16 25 19 13 16 16 16 17 19 23 25 28 27 25 26 26 28 30 32 33 32 32 33 35 39 41 40 38 37 42 46 42 39 37 29 26 32 59 85 83 87 84 80 72 59 51 49
138 122 79 29 10 18 19 17 13 12 13 12 12 17 21 25 27 26 24 25 26 27 28 29 30 30 32 34 36 39 39 38 36 35 38 40 44 45 45 37 27 29 40 35 21 72 98 103 89 55 42 37
146 119 95 28 356 9 9 14 14 10 10 7 11 18 20 23 26 25 24 25 26 27 28 28 27 28 29 31 33 35 36 36 35 35 33 31 33 38 48 50 35 35 39 26 11 360 78 121 274 223 39 23
219 174 160 234 316 347 349 7 11 8 10 8 13 19 19 20 23 24 23 23 26 28 28 27 28 27 27 29 32 34 35 36 35 35 31 28 30 32 34 35 32 41 45 38 38 35 299 288 341 143 17 359
253 218 210 231 251 282 310 349 356 4 13 11 11 14 18 19 20 22 22 24 25 26 27 26 27 27 27 30 31 34 36 37 37 35 32 29 31 36 33 27 29 43 54 50 51 50 34 325 357 355 335 341
276 251 228 233 241 257 279 321 7 17 15 10 7 9 14 17 18 21 21 24 25 25 27 26 26 26 27 30 31 33 34 35 36 35 36 32 31 38 42 41 38 40 54 61 60 60 64 68 68 347 324 330
282 274 243 232 232 241 285 10 27 30 18 12 7 4 10 13 17 19 19 23 24 24 26 26 27 26 26 29 31 31 32 34 36 36 38 34 31 36 39 48 49 39 42 54 54 57 68 75 74 68 43 25